Regional Weather Roundup
Issued by NWS Charleston, SC

Current Version | Previous Version | Graphics & Text | Print | Product List | Glossary On
Versions: 1 2 3 4 5 6 7 8 9 10 11 12 13 14 15 16 17 18 19 20 21 22 23 24 25 26 27 28 29 30 31 32 33 34 35 36 37 38 39 40 41 42 43 44 45 46 47 48 49 50
000
ASUS42 KCHS 251625
RWRCHS

REGIONAL WEATHER ROUNDUP
NATIONAL WEATHER SERVICE CHARLESTON SC
1100 AM EST TUE NOV 25 2014

NOTE: "FAIR" INDICATES FEW OR NO CLOUDS BELOW 12,000 FEET WITH NO
SIGNIFICANT WEATHER AND/OR OBSTRUCTIONS TO VISIBILITY.

NOT ALL STATIONS ARE QUALITY CONTROLLED BY THE NATIONAL
WEATHER SERVICE. USE DATA WITH CAUTION...ESPECIALLY
DEWPOINT OBSERVATIONS.

SCZ027-030-031-034>040-042>050-251700-
...SOUTHEAST SOUTH CAROLINA...

CITY           SKY/WX    TMP DP  RH WIND       PRES   REMARKS
N CHARLESTON   LGT RAIN  63  61  93 CALM      30.08F FOG
WATERFRONT PRK   N/A     61 N/A N/A SE8         N/A
MOUNT PLEASANT CLOUDY    63  63 100 CALM      30.07S VSB 3/4
JOHNS ISLAND   RAIN      63  63 100 CALM      30.09R VSB 3/4
PINOPOLIS      NOT AVBL
MONCKS CORNER  LGT RAIN  63  63 100 CALM      30.09R
SUMMERVILLE    DRIZZLE   63  63 100 CALM      30.11R
BEAUFORT MCAS  LGT RAIN  63  61  93 SW5       30.11R FOG
BEAUFORT ARPT  DRIZZLE   61  61 100 CALM      30.10R
HILTON HEAD IS RAIN      63  63 100 CALM      30.11R FOG
WALTERBORO     RAIN      63 N/A N/A CALM      30.11R
ALLENDALE      RAIN      57  57 100 CALM      30.08F

...SOUTHERN MIDLANDS AND PEE DEE...

CITY           SKY/WX    TMP DP  RH WIND       PRES   REMARKS
GEORGETOWN     NOT AVBL
KINGSTREE      NOT AVBL
ORANGEBURG     LGT RAIN  63  59  87 SW5       30.10R
BARNWELL       LGT RAIN  57  57 100 SW3       30.12R
AIKEN          CLOUDY    55  46  71 CALM      30.12F
MANNING        NOT AVBL
COLUMBIA       LGT RAIN  61  56  83 W6        30.08R
SUMTER         LGT RAIN  63  61  94 SW8       30.08R FOG
FLORENCE       LGT RAIN  62  60  93 S7        30.08R FOG
MYRTLE BEACH   LGT RAIN  63  61  94 NW6       30.07F FOG
N MYRTLE BEACH LGT RAIN  63  61  93 SW3       30.07F FOG

$$

GAZ063-065-086>088-099>101-113>116-118-119-134>141-150-251700-
...SOUTHEAST GEORGIA...

CITY           SKY/WX    TMP DP  RH WIND       PRES   REMARKS
SAVANNAH ARPT  LGT RAIN  64  61  88 CALM      30.08F FOG
HUNTER AAF     LGT RAIN  63  63 100 SW1       30.08S
FORT STEWART   CLOUDY    63  61  94 E1        30.04F
STATESBORO     NOT AVBL
SYLVANIA       RAIN      56  53  91 CALM      30.09F
CLAXTON        LGT RAIN  57  57 100 N3        30.07F

...CSRA...CENTRAL AND FAR SOUTHEAST GEORGIA...

CITY           SKY/WX    TMP DP  RH WIND       PRES   REMARKS
THOMSON        CLOUDY    56  48  72 CALM      30.14R
AUGUSTA-BUSH   LGT RAIN  57  48  72 SW3       30.09S
AUGUSTA-DANIEL CLOUDY    58  42  55 CALM      30.09S
SWAINSBORO     LGT RAIN  59  59 100 NW5       30.09F
VIDALIA        CLOUDY    55  54  94 N3        30.08F
HAZLEHURST     CLOUDY    57  57 100 N7        30.05F
ALMA           CLOUDY    57  55  93 N8        30.05F
WAYCROSS       LGT RAIN  66  65  97 NE5       30.05F
JESUP          RAIN      64  64 100 CALM      30.05F
BAXLEY         CLOUDY    59  57  94 N8        30.05F
BRUNSWICK      CLOUDY    64  61  88 NE3       30.07F
SAINT SIMONS   CLOUDY    64  61  90 NE5       30.08S

$$

SCZ027-028-034-036>038-045-046-048>050-GAZ119-141-251700-
...LAKE AND SUPPLEMENTAL COASTAL OBSERVATIONS...

STATION/POSITION TIME  TEMP    WIND        PRES    WAVE   SWELL
                       AIR SEA DIR/SP/G            HT/PER HT/PER/DIR
                 (UTC) (F)     (DEG/KT/KT) (MB)    (FT/S) (FT/S/D)
UPR LAKE MARION  NOT AVBL
WINYAH BAY       1600   61     140/  2     1018.0F
LAKE MURRAY      1500   59     220/  3/  4 1018.3R
ACE BASIN NERRS  1600   61        CALM     1018.0S
FORT PULASKI     1600   61     250/  2/  3 1019.6S
SAPELO ISLAND    NOT AVBL

$$

ANZ835-935-AMZ111-154-330-350-352-354-370-450-454-472-251700-
...C-MAN AND BUOY OBSERVATIONS...

STATION/POSITION TIME  TEMP    WIND        PRES    WAVE   SWELL
                       AIR SEA DIR/SP/G            HT/PER HT/PER/DIR
                 (UTC) (F)     (DEG/KT/KT) (MB)    (FT/S) (FT/S/D)
FOLLY BEACH CMAN 1600   60     130/  5/  6 1019.3F
BUOY 41004       1600   69 75  340/ 10/ 12 1016.9F   4/ 9   3/ 9
BUOY 41008       1600   64 65   10/  8/ 10 1018.5R   3/10   3/110/10
CAPERS NEARSHORE 1500   59     130/  4/  6   N/A
FRIPP NEARSHORE  NOT AVBL


STATION/POSITION TIME  TEMP    WIND        PRES    WAVE   SWELL
                       AIR SEA DIR/SP/G            HT/PER HT/PER/DIR
                 (UTC) (F)     (DEG/KT/KT) (MB)    (FT/S) (FT/S/D)
5E ST. MARYS GA  1600      63                N/A     3/10   2/100/11
FRYING PAN BUOY  1600   69 70  290/ 14/ 17 1017.7F   4/ 9   3/110/ 9
BUOY 41025       1600   71     280/ 16/ 17 1017.3F   5/ 9   5/120/ 9
CAPE LOOKOUT NC  1600   65     290/ 10/ 11 1017.6F
BUOY 41002       1520   75 74  190/ 14/ 16 1020.1F   6/ 8   5/120/ 8
BUOY 41010       1600   79 78  170/ 17/ 21 1017.8F   6/ 9   3/120/ 9
ST AUGUSTINE FL  1600   64     360/ 16/ 17 1017.9F


$$


USA.gov is the U.S. government's official web portal to all federal, state and local government web resources and services.